This demonstration page uses our WeatherBlox Daily Observations layout. Learn more.

Left ArrowRight Arrow

Hourly Observations for September 26, 2022

Temp ( °F °C ) Dew Point ( °F °C ) Humidity (%) Winds ( mph kmh ) Pressure ( in mb ) Visibility ( mi km ) Precip ( " mm )
12:15 am 00:15 Clear 51 10.3 43 6.1 75 75 Calm 30.20 1023 10 16 0.00 0.00
12:35 am 00:35 Clear 52 10.9 43 6 72 72 Calm 30.20 1023 10 16 0.00 0.00
12:55 am 00:55 Clear 49 9.7 42 5.6 76 76 W 5 7 30.22 1023 10 16 0.00 0.00
1:15 am 01:15 Clear 52 11.1 41 4.9 66 66 Calm 30.19 1022 10 16 0.00 0.00
1:35 am 01:35 Clear 50 10.2 41 5 70 70 Calm 30.20 1023 10 16 0.00 0.00
1:55 am 01:55 Clear 48 8.8 41 5 77 77 WNW 8 13 30.22 1023 10 16 0.00 0.00
2:15 am 02:15 Clear 50 9.9 41 4.8 71 71 Calm 30.21 1023 10 16 0.00 0.00
2:35 am 02:35 Clear 48 8.9 40 4.5 74 74 NW 3 6 30.22 1023 10 16 0.00 0.00
2:55 am 02:55 Clear 47 8.1 40 4.7 79 79 Calm 30.23 1024 10 16 0.00 0.00
3:15 am 03:15 Clear 47 8.5 40 4.6 76 76 Calm 30.23 1024 10 16 0.00 0.00
3:35 am 03:35 Clear 47 8.4 40 4.3 75 75 Calm 30.23 1024 10 16 0.00 0.00
3:55 am 03:55 Clear 45 7.1 40 4.4 83 83 NW 3 6 30.25 1024 10 16 0.00 0.00
4:15 am 04:15 Clear 46 7.6 40 4.2 79 79 NW 3 6 30.25 1024 10 16 0.00 0.00
4:35 am 04:35 Clear 44 6.7 40 4.2 84 84 N 5 7 30.24 1024 10 16 0.00 0.00
4:55 am 04:55 Clear 44 6.9 39 3.8 81 81 Calm 30.24 1024 10 16 0.00 0.00
5:15 am 05:15 Clear 44 6.9 39 4 82 82 Calm 30.24 1024 10 16 0.00 0.00
5:35 am 05:35 Clear 43 6.2 39 4 86 86 NNW 3 6 30.26 1025 10 16 0.00 0.00
5:55 am 05:55 Clear 44 6.7 39 3.7 81 81 Calm 30.25 1025 10 16 0.00 0.00
6:15 am 06:15 Clear 44 6.5 39 3.7 82 82 NNW 5 7 30.26 1025 10 16 0.00 0.00
6:35 am 06:35 Clear 44 6.4 38 3.6 82 82 Calm 30.27 1025 10 16 0.00 0.00
6:55 am 06:55 Clear 43 6.2 38 3.5 83 83 NW 3 6 30.27 1025 10 16 0.00 0.00
7:15 am 07:15 Clear 43 6.1 38 3.5 83 83 NW 3 6 30.27 1025 10 16 0.00 0.00
7:35 am 07:35 Sunny 42 5.7 38 3.5 86 86 Calm 30.27 1025 10 16 0.00 0.00
7:55 am 07:55 Sunny 43 6.3 39 3.7 83 83 NNW 3 6 30.27 1025 10 16 0.00 0.00
8:15 am 08:15 Sunny 43 6.3 40 4.6 89 89 Calm 30.28 1025 10 16 0.00 0.00
8:35 am 08:35 Sunny 47 8.1 42 5.3 82 82 Calm 30.26 1025 10 16 0.00 0.00
8:55 am 08:55 Sunny 49 9.6 42 5.3 75 75 Calm 30.25 1024 10 16 0.00 0.00
9:15 am 09:15 Sunny 51 10.6 44 6.4 75 75 Calm 30.24 1024 10 16 0.00 0.00
9:35 am 09:35 Sunny 54 12.1 44 6.6 69 69 Calm 30.22 1023 10 16 0.00 0.00
9:55 am 09:55 Sunny 57 13.8 43 5.9 59 59 Calm 30.21 1023 10 16 0.00 0.00
10:15 am 10:15 Sunny 60 15.6 40 4.6 48 48 Calm 30.19 1022 10 16 0.00 0.00
10:35 am 10:35 Sunny 62 16.5 38 3.3 41 41 Calm 30.19 1022 10 16 0.00 0.00
10:55 am 10:55 Sunny 63 17.4 38 3.6 40 40 Calm 30.18 1022 10 16 0.00 0.00
11:15 am 11:15 Sunny 65 18.6 35 1.4 32 32 Calm 30.17 1022 10 16 0.00 0.00
11:35 am 11:35 Sunny 66 19.1 34 1.2 30 30 SE 3 6 30.16 1021 10 16 0.00 0.00
11:55 am 11:55 Sunny 67 19.7 33 0.7 28 28 SSE 3 6 30.15 1021 10 16 0.00 0.00
12:15 pm 12:15 Sunny 68 20.2 34 1.2 28 28 Calm 30.14 1021 10 16 0.00 0.00
12:35 pm 12:35 Sunny 70 20.9 35 1.6 28 28 SSE 8 13 30.12 1020 10 16 0.00 0.00
12:55 pm 12:55 Sunny 71 21.5 35 1.6 27 27 S 3 6 30.11 1020 10 16 0.00 0.00
1:15 pm 13:15 Sunny 72 22 35 1.8 26 26 SE 3 6 30.10 1019 10 16 0.00 0.00
1:35 pm 13:35 Sunny 73 22.7 37 2.6 27 27 SSW 8 13 30.08 1019 10 16 0.00 0.00
1:55 pm 13:55 Sunny 73 22.8 37 2.6 27 27 S 5 7 30.07 1018 10 16 0.00 0.00
2:15 pm 14:15 Sunny 74 23.1 38 3.1 27 27 S 7 11 30.06 1018 10 16 0.00 0.00
2:35 pm 14:35 Sunny 74 23.2 37 2.9 26 26 SSW 8 13 30.05 1018 10 16 0.00 0.00
2:55 pm 14:55 Sunny 74 23.3 37 3 26 26 SSW 8 13 30.04 1017 10 16 0.00 0.00
3:15 pm 15:15 Sunny 75 23.8 39 3.7 27 27 S 5 7 30.02 1017 10 16 0.00 0.00
3:35 pm 15:35 Sunny 75 24.1 39 4 27 27 S 5 7 30.01 1016 10 16 0.00 0.00
3:55 pm 15:55 Sunny 75 24 39 4.1 27 27 SSW 12 19 30.01 1016 10 16 0.00 0.00
4:15 pm 16:15 Sunny 76 24.4 40 4.4 27 27 S 9 15 30.00 1016 10 16 0.00 0.00
4:35 pm 16:35 Sunny 75 24.1 40 4.6 28 28 SSW 10 17 30.00 1016 10 16 0.00 0.00
4:55 pm 16:55 Sunny 76 24.3 40 4.7 28 28 SSE 7 11 29.99 1016 10 16 0.00 0.00
5:15 pm 17:15 Sunny 76 24.4 40 4.5 28 28 SSW 6 9 29.99 1016 10 16 0.00 0.00
5:35 pm 17:35 Sunny 76 24.3 40 4.7 28 28 SSW 6 9 29.99 1016 10 16 0.00 0.00
5:55 pm 17:55 Sunny 76 24.2 41 5 29 29 SSE 6 9 29.98 1015 10 16 0.00 0.00
6:15 pm 18:15 Sunny 75 23.7 43 5.9 32 32 S 5 7 29.99 1015 10 16 0.00 0.00
6:35 pm 18:35 Sunny 74 23.2 44 6.4 34 34 SSE 5 7 29.99 1016 10 16 0.00 0.00
6:55 pm 18:55 Sunny 72 22.1 45 7.3 38 38 SSE 3 6 29.99 1016 10 16 0.00 0.00
7:15 pm 19:15 Sunny 69 20.5 45 7.2 42 42 SE 6 9 30.00 1016 10 16 0.00 0.00
7:35 pm 19:35 Clear 66 18.7 46 7.6 48 48 ESE 7 11 30.02 1016 10 16 0.00 0.00
7:55 pm 19:55 Clear 64 17.7 46 7.6 52 52 SE 7 11 30.02 1017 10 16 0.00 0.00
8:15 pm 20:15 Clear 62 16.4 46 7.8 57 57 SE 7 11 30.04 1017 10 16 0.00 0.00
8:35 pm 20:35 Clear 59 15.1 46 8 63 63 SE 8 13 30.05 1018 10 16 0.00 0.00
8:55 pm 20:55 Clear 60 15.5 45 7.1 57 57 SE 8 13 30.06 1018 10 16 0.00 0.00
9:15 pm 21:15 Clear 59 14.8 44 6.9 59 59 SE 8 13 30.06 1018 10 16 0.00 0.00
9:35 pm 21:35 Clear 58 14.6 44 6.8 59 59 SE 8 13 30.06 1018 10 16 0.00 0.00
9:55 pm 21:55 Clear 58 14.3 44 6.5 59 59 SE 8 13 30.07 1018 10 16 0.00 0.00
10:15 pm 22:15 Clear 56 13.5 44 6.8 64 64 SSE 6 9 30.08 1019 10 16 0.00 0.00
10:35 pm 22:35 Clear 57 13.7 44 6.8 63 63 SSE 8 13 30.08 1019 10 16 0.00 0.00
10:55 pm 22:55 Clear 56 13.6 44 6.6 63 63 S 7 11 30.09 1019 10 16 0.00 0.00
11:15 pm 23:15 Clear 55 12.8 44 6.7 66 66 S 8 13 30.10 1019 10 16 0.00 0.00
11:35 pm 23:35 Clear 55 12.7 44 6.6 66 66 S 8 13 30.10 1019 10 16 0.00 0.00
11:55 pm 23:55 Clear 54 12.2 44 6.6 69 69 S 7 11 30.10 1019 10 16 0.00 0.00

Powered by AerisWeather